Location: Newark
(48.3453°N, 0.5589°E)
Time: 19:12:59
(UTC+00:00)

A-11 Canister half - Pass Details

Date: 14 December 2019
Orbit: 1517 x 1683 km, 47.2° (Epoch: 27 January)

Event Time Altitude Azimuth Distance (km) Brightness Sun altitude
Rises 08:32:22 0° 175° (S) 4,687 12.4 5.7°
Reaches altitude 10° 08:37:18 10° 153° (SSE) 3,738 12.9 6.2°
Maximum altitude 08:41:48 14° 124° (ESE) 3,425 12.8 6.7°
Drops below altitude 10° 08:46:21 10° 95° (E) 3,809 11.9 7.3°
Sets 08:51:26 0° 73° (ENE) 4,836 12.0 7.8°
